Regional Weather Roundup
Issued by NWS

Home | Current Version | Previous Version | Graphics & Text | Print | Product List | Glossary Off
Versions: 1 2 3 4 5 6 7 8 9 10 11 12 13 14 15 16 17 18 19 20 21 22 23 24 25 26 27 28 29 30 31 32 33 34 35 36 37 38 39 40 41 42 43 44 45 46 47 48 49 50

000
ASUS43 KLSX 261807
RWRMO

WEATHER SUMMARY FOR MISSOURI
NATIONAL WEATHER SERVICE SPRINGFIELD MO
100 PM CDT TUE SEP 26 2017

NOTE: "FAIR" INDICATES FEW OR NO CLOUDS BELOW 12,000 FEET WITH NO
       SIGNIFICANT WEATHER AND/OR OBSTRUCTIONS TO VISIBILITY.
       CURRENT SKY AND/OR WEATHER CONDITIONS ARE NOT AVAILABLE FOR
       CHILLICOTHE AND FARMINGTON.

MOZ001>031-035>038-043-044-053-054-261900-
...NORTHERN AND WESTERN MISSOURI...

CITY           SKY/WX    TMP DP  RH WIND       PRES   REMARKS
KANSAS CTY INT CLOUDY    65  61  87 NW10      30.08R
6HR MIN TEMP:  63; 6HR MAX TEMP:  67; 6HR PCP: TRACE;

KANSAS C DTWN  CLOUDY    67  63  87 NW9       30.07R
6HR MIN TEMP:  66; 6HR MAX TEMP:  70; 6HR PCP:  0.05;

LEE`S SUMMIT   CLOUDY    70  66  87 NW9       30.07R
6HR MIN TEMP:  66; 6HR MAX TEMP:  72; 6HR PCP:  0.03;

ST JOSEPH      CLOUDY    65  59  81 NW9       30.09S
6HR MIN TEMP:  60; 6HR MAX TEMP:  66;

CHILLICOTHE      N/A     70  66  87 NW10      30.05R
6HR MIN TEMP:  67; 6HR MAX TEMP:  72; 6HR PCP:  0.16;

KIRKSVILLE     CLOUDY    73  65  75 NW8       30.03R
6HR MIN TEMP:  64; 6HR MAX TEMP:  76; 6HR PCP:  0.01;


$$
MOZ066>068-077>081-088>096-101>105-261900-
...SOUTHWEST MISSOURI...

CITY           SKY/WX    TMP DP  RH WIND       PRES   REMARKS
SPRINGFIELD    MOSUNNY   82  67  60 VRB5      30.03S
6HR MIN TEMP:  68; 6HR MAX TEMP:  83;

JOPLIN         CLOUDY    77  69  76 CALM      30.04S
6HR MIN TEMP:  67; 6HR MAX TEMP:  78;

BRANSON        MOSUNNY   84  59  42 NW5       30.03F

$$
MOZ032>034-039>042-045>050-055>058-069>072-261900-
...CENTRAL MISSOURI...

CITY           SKY/WX    TMP DP  RH WIND       PRES   REMARKS
COLUMBIA       MOSUNNY   81  68  64 W7        30.01S
6HR MIN TEMP:  67; 6HR MAX TEMP:  82;

JEFFERSON CITY SUNNY     83  65  54 W5        29.99F
6HR MIN TEMP:  65; 6HR MAX TEMP:  83;

ROLLA          PTSUNNY   82  65  56 W9        30.02F
6HR MIN TEMP:  65; 6HR MAX TEMP:  86;

SEDALIA        CLOUDY    79  67  66 W8        30.03F
6HR MIN TEMP:  69; 6HR MAX TEMP:  82;

WHITEMAN AFB   PTSUNNY   74  64  71 NW8       30.02S
OSAGE BEACH    SUNNY     81  67  62 VRB7      30.02F

$$
MOZ051-052-059>065-261900-
...EAST CENTRAL MISSOURI...

CITY           SKY/WX    TMP DP  RH WIND       PRES   REMARKS
ST LOUIS INTL  MOSUNNY   88  62  41 W8        29.98F
6HR MIN TEMP:  73; 6HR MAX TEMP:  90;

SPIRIT OF STL  SUNNY     89  64  43 W3        29.97F HX  90
6HR MIN TEMP:  63; 6HR MAX TEMP:  90;

ST CHARLES     MOSUNNY   88  61  40 W13       29.96F
6HR MIN TEMP:  66; 6HR MAX TEMP:  90;


$$
MOZ072>076-082>087-097>100-106>115-261900-
...SOUTH CENTRAL AND SOUTHEAST MISSOURI...

CITY           SKY/WX    TMP DP  RH WIND       PRES   REMARKS
CAPE GIRARDEAU MOSUNNY   86  64  47 CALM      29.98F
6HR MIN TEMP:  60; 6HR MAX TEMP:  87;

FARMINGTON     PTSUNNY   85  63  47 SW6       30.01F
6HR MIN TEMP:  61; 6HR MAX TEMP:  86;

POPLAR BLUFF   MOSUNNY   88  64  44 NW5       29.98F
6HR MIN TEMP:  62; 6HR MAX TEMP:  88;

WEST PLAINS    SUNNY     85  61  44 W8        30.03F
6HR MIN TEMP:  61; 6HR MAX TEMP:  85;


$$



USA.gov is the U.S. government's official web portal to all federal, state and local government web resources and services.